New York, NY

5:49 AM EST on December 10, 2019 (GMT -0500)
La Guardia

Weather History for KLGA - October, 2019

Change the Weather History Date:

Thursday, October 3, 2019

  Actual Average Record
Temperature  
Mean Temperature 61 °F 63 °F  
Max Temperature 67 °F 70 °F 85 °F (2000)
Min Temperature 54 °F 56 °F 40 °F (1974)
Degree Days  
Heating Degree Days 4 4  
Month to date heating degree days 4 12  
Since 1 July heating degree days 7 47  
Cooling Degree Days 0 2  
Month to date cooling degree days 22 6  
Year to date cooling degree days 1477 1196  
Growing Degree Days 7 (Base 50)    
Moisture  
Dew Point 54 °F    
Average Humidity 87    
Maximum Humidity 93    
Minimum Humidity 80    
Precipitation  
Precipitation 0.23 in 0.12 in 1.07 in (1987)
Month to date precipitation 0.44 0.37  
Year to date precipitation 36.92 34.35  
Snow  
Snow 0.00 in 0.00 in - ()
Month to date snowfall 0.0 0.0  
Since 1 July snowfall 0.0 0.0  
Snow Depth 0.00 in    
Sea Level Pressure  
Sea Level Pressure 30.07 in    
Wind  
Wind Speed 13 mph (ENE)    
Max Wind Speed 24 mph    
Max Gust Speed 31 mph    
Visibility 5 miles    
Events Rain    
T = Trace of Precipitation, MM = Missing Value Source: NWS Daily Summary

Daily Weather History Graph

Daily Weather History Graph

Search for Another Location

Airport or City:

Astronomy

Oct. 03, 2019 Rise Set
Actual Time 6:53 AM EDT 6:34 PM EDT
Civil Twilight 6:26 AM EDT 7:01 PM EDT
Nautical Twilight 5:54 AM EDT 7:33 PM EDT
Astronomical Twilight 5:22 AM EDT 8:05 PM EDT
Moon 12:24 PM EDT (10/3) 10:09 PM EDT (10/3)
Length of Visible Light 12h 35m
Length of Day
11h 40m
Waxing Crescent, 29% of the Moon is Illuminated
Oct 3
Waxing Crescent
Oct 5
First Quarter
Oct 13
Full
Oct 21
Last Quarter
Oct 27
New

Hourly Weather History & Observations

Time (EDT) Temp. Dew Point Humidity Pressure Visibility Wind Dir Wind Speed Gust Speed Precip Events Conditions
12:51 AM 68.0 °F 63.0 °F 84% 29.99 in 9.0 mi NE 15.0 mph - 0.00 in Rain Light Rain
1:04 AM 66.0 °F 63.0 °F 90% 29.99 in 5.0 mi ENE 13.8 mph 19.6 mph 0.00 in Rain Light Rain
1:44 AM 64.9 °F 61.0 °F 87% 30.01 in 5.0 mi ENE 18.4 mph - 0.01 in Rain Light Rain
1:51 AM 64.9 °F 62.1 °F 90% 30.01 in 4.0 mi North 12.7 mph - 0.01 in Rain Light Rain
1:57 AM 62.1 °F 59.0 °F 90% 30.01 in 1.5 mi North 12.7 mph - 0.01 in Rain Rain
2:47 AM 62.6 °F 57.2 °F 82% 30.02 in 10.0 mi ENE 23.0 mph - 0.04 in Rain Light Rain
2:51 AM 61.0 °F 57.9 °F 90% 30.02 in 8.0 mi NE 23.0 mph - 0.04 in Rain Light Rain
3:32 AM 60.1 °F 55.9 °F 86% 30.03 in 10.0 mi NE 16.1 mph - 0.00 in   Overcast
3:51 AM 59.0 °F 54.0 °F 83% 30.04 in 10.0 mi NE 15.0 mph - 0.00 in   Overcast
4:51 AM 57.0 °F 54.0 °F 89% 30.05 in 8.0 mi NNE 15.0 mph 21.9 mph 0.01 in Rain Light Rain
5:06 AM 57.9 °F 55.0 °F 90% 30.05 in 7.0 mi NE 18.4 mph 21.9 mph 0.00 in Rain Light Rain
5:41 AM 59.0 °F 54.0 °F 83% 30.07 in 7.0 mi ENE 17.3 mph - 0.00 in Rain Light Rain
5:51 AM 59.0 °F 55.0 °F 87% 30.08 in 6.0 mi ENE 20.7 mph - 0.00 in Rain Light Rain
6:34 AM 57.9 °F 53.1 °F 84% 30.09 in 3.0 mi East 17.3 mph 26.5 mph 0.03 in Rain Rain
6:51 AM 57.9 °F 54.0 °F 87% 30.11 in 8.0 mi ENE 16.1 mph - 0.04 in Rain Light Rain
7:07 AM 57.9 °F 54.0 °F 87% 30.10 in 9.0 mi East 13.8 mph - 0.00 in Rain Light Rain
7:45 AM 55.4 °F 51.8 °F 88% 30.14 in 8.0 mi NNE 10.4 mph - 0.01 in Rain Light Rain
7:51 AM 55.0 °F 51.1 °F 86% 30.14 in 10.0 mi NNE 10.4 mph - 0.01 in Rain Light Rain
8:14 AM 57.0 °F 53.1 °F 87% 30.14 in 4.0 mi East 15.0 mph - 0.00 in Rain Light Rain
8:51 AM 57.0 °F 51.1 °F 81% 30.14 in 8.0 mi East 15.0 mph - 0.01 in Rain Light Rain
9:51 AM 55.9 °F 50.0 °F 80% 30.15 in 3.0 mi East 17.3 mph - 0.00 in Rain Light Rain
10:04 AM 55.0 °F 50.0 °F 83% 30.15 in 2.5 mi East 15.0 mph - 0.01 in Rain Light Rain
10:31 AM 55.0 °F 50.0 °F 83% 30.14 in 6.0 mi East 13.8 mph - 0.02 in   Haze
10:51 AM 55.9 °F 51.1 °F 84% 30.14 in 9.0 mi East 12.7 mph - 0.02 in   Overcast
11:08 AM 55.0 °F 51.1 °F 86% 30.14 in 7.0 mi East 17.3 mph 21.9 mph N/A   Overcast
11:51 AM 54.0 °F 48.9 °F 83% 30.13 in 4.0 mi East 20.7 mph - 0.00 in Rain Light Rain
12:51 PM 55.0 °F 51.1 °F 86% 30.12 in 7.0 mi ENE 13.8 mph - 0.00 in   Overcast
1:51 PM 55.9 °F 51.1 °F 84% 30.11 in 10.0 mi ENE 13.8 mph - N/A   Overcast
2:51 PM 55.9 °F 51.1 °F 84% 30.11 in 2.0 mi ENE 12.7 mph - 0.00 in Rain Light Rain
3:51 PM 57.0 °F 53.1 °F 87% 30.09 in 2.0 mi ENE 13.8 mph - 0.00 in   Overcast
4:24 PM 57.0 °F 53.1 °F 87% 30.07 in 2.0 mi ENE 10.4 mph - N/A   Overcast
4:36 PM 57.0 °F 53.1 °F 87% 30.07 in 2.0 mi ENE 11.5 mph - 0.00 in Rain Light Rain
4:51 PM 57.0 °F 53.1 °F 87% 30.07 in 2.0 mi East 12.7 mph - 0.01 in Rain Light Rain
5:47 PM 55.4 °F 53.6 °F 94% 30.06 in 3.0 mi East 11.5 mph - 0.01 in   Overcast
5:51 PM 57.0 °F 53.1 °F 87% 30.06 in 3.0 mi East 11.5 mph - 0.01 in   Overcast
6:51 PM 57.0 °F 53.1 °F 87% 30.04 in 2.0 mi East 10.4 mph - N/A   Overcast
7:51 PM 57.9 °F 55.0 °F 90% 30.02 in 2.0 mi East 6.9 mph - N/A   Overcast
8:51 PM 57.9 °F 55.9 °F 93% 30.01 in 2.0 mi ENE 6.9 mph - N/A   Overcast
9:51 PM 59.0 °F 55.9 °F 90% 30.00 in 2.0 mi NE 5.8 mph - 0.01 in Rain Light Rain
10:51 PM 59.0 °F 57.0 °F 93% 29.98 in 2.0 mi NNE 5.8 mph - 0.03 in Rain Light Rain
11:49 PM 60.8 °F 57.2 °F 88% 29.95 in 1.5 mi ENE 5.8 mph - 0.01 in Rain Light Rain
11:51 PM 60.1 °F 57.9 °F 93% 29.95 in 1.5 mi ENE 5.8 mph - 0.01 in Rain Light Rain